OBJECT E, 60749

Orbit data source: Space-Track

You're viewing an Uncataloged Satellite

Recently launched and/or uncataloged satellites may have evolving metadata. Metadata may include but not limited to: Owner, Maufacturer, Bus, Motor, and Mission.

OBJECT E, 60749 is a satellite owned by Taizhou Xingkong (CN) in SSO that was launched on Thu, 29 Aug 2024 UTC via a GUSHENXING 1 launch vehicle from the Yellow Sea Launch Area, China (YSLA). Unknown objects in Earth's orbit typically refer to objects detected orbiting the Earth but have not yet been identified or cataloged. These objects could be anything from previously untracked satellites, spent rocket stages, debris from satellite collisions, or even natural meteoroids temporarily captured by Earth's gravity.

Loading next visibility...
OBJECT E details
Identifier
60749, 2024-153E
Orbit
SSO
Last TLE update8 hours ago
Origin
Flag of CNTaizhou Xingkong (CN / PRC)
ManufacturerShanghai ASES
MissionOperational spacecraft
Bus & MotorSUXING, Unknown motor
Mass~50 kg wet, ~50 kg dry
Launch date (UTC)
2024-08-29 (5 months ago)
Launch vehicle
GUSHENXING 1
Launch site
Yellow Sea Launch Area, China (YSLA)
Object typeUnknown
Shape & HBRUnknown
Radar Cross SectionMedium (>0.1 m² and <1 m²)

Expand to show TLE details & history

TLE from 8 hours ago
0 OBJECT E
1 60749U 24153E   25014.89599202  .00019429  00000-0  96600-3 0  9996
2 60749  97.6224 138.4603 0014189 171.5381 188.6094 15.17591255 20988
Epoch: 2025-01-14T21:30Z
Definitive object data (Epoch: 2025-01-14T21:30:13.71Z)
Latitude-0.00004°
Longitude61.30706°
Altitude525.874 km
Speed7.595 km/s
True Right ascension09h 13m 50s
True Declination0° 00' 00"
Sunlit
Object was in full shadow at TLE epoch
Visualization TLE readout
Latitude-29.20527°
Longitude65.9001°
Altitude533.317 km
Speed7.59 km/s
Apparent Right ascension12h 58m 03s
Apparent Declination-55° 42' 22"
Sunlit
Object is in full shadow
Visualization observer readout
Local Sidereal Time05:56:23
Azimuth134.702° SE
Elevation-40.166°
Doppler factor1
Orbital elements
Apogee altitude519.875 km
Perigee altitude500.328 km
Semi-major axis6,888.238 km
Eccentricity0.0014189
Inclination97.6224°
RAAN138.4603°
Arg. of periapsis171.5381°
True anomaly188.5851°
Mean anomaly188.6094°
Eccentric anomaly188.59725°
Mean motion3.79648 °/min
BSTAR0.000966
Orbital period94.82 mins
Loading maneuver chart data...
Loading historical data...
Loading historical data...
Loading historical data...
Loading historical data...
Loading historical data...
Loading historical data...
Loading historical data...

OBJECT E Visibility forecast

Observer location: undefined°, undefined

Span
Click to sort rows by Start time (UTC) header in descending order
Start Az.
Max El. time (UTC)
Max El. Az.
Max El.
End time (UTC)
End Az.
4 mins2025-01-15 07:09:12.135Z105.968° ESE2025-01-15 07:11:12.135Z72.469° E16.074°2025-01-15 07:13:12.135Z35.773° NE
5 mins2025-01-15 08:43:12.135Z213.561° SW2025-01-15 08:45:12.135Z263.378° W27.068°2025-01-15 08:48:12.135Z323.581° NNW
4 mins2025-01-15 20:15:12.135Z62.391° ENE2025-01-15 20:16:12.135Z84.15° E20.615°2025-01-15 20:19:12.135Z145.017° SSE
4 mins2025-01-15 21:49:12.135Z320.024° NNW2025-01-15 21:50:12.135Z298.539° NW19.567°2025-01-15 21:53:12.135Z242.049° WSW
|